Location: アルンシュタイン
(50.0000°N, 10.0000°E)
Time: 10:38:08
(UTC+01:00)

ISS - Pass Details

Date: 30 September 2023
Orbit: 416 x 417 km, 51.6° (Epoch: 01 December)

Event Time Altitude Azimuth Distance (km) Brightness Sun altitude
Rises 19:54:17 0° 288° (WNW) 2,375 2.1 -9.3°
Reaches altitude 10° 19:56:27 10° 282° (WNW) 1,503 0.7 -9.7°
Maximum altitude 19:59:41 45° 208° (SSW) 576 -2.9 -10.2°
Enters shadow 20:02:42 11° 135° (SE) 1,414 -1.6 -10.7°
